Location: ?
(35.3544°N, 139.4507°E)
Time: 17:14:06
(UTC+00:00)

Meteor 1-22 Rocket - Pass Details

Date: 03 August 2024
Orbit: 786 x 940 km, 81.2° (Epoch: 11 September)

Event Time Altitude Azimuth Distance (km) Brightness Sun altitude
Exits shadow 18:27:16 12° 189° (S) 2,431 6.2 -16.2°
Maximum altitude 18:32:48 86° 277° (W) 932 4.3 -15.3°
Drops below altitude 10° 18:38:55 10° 8° (N) 2,656 7.4 -14.2°
Sets 18:41:26 0° 8° (N) 3,608 8.1 -13.8°
